Surface/Precipitation History
02/25/2015 21:04  to  2/26/2015 21:04
Change End Date:
Date/Time
(MST)
Sf
Temp Chem Water Layer Surface Precipitation
Sf Sub Frz Factor Pct Depth IcePct Cond Salin Type Intens Accum Rate
02/26/2015 20:51 Ice Warning 13.5F 31F 32F 5 0% - 100% 0 mhos 10 None None - -
02/26/2015 20:49 Ice Warning 13.5F 31F 32F 5 0% - 100% 0 mhos 10 None None - -
02/26/2015 20:41 Ice Warning 13.8F 31F 32F 5 0% - 100% 0 mhos 10 None None - -
02/26/2015 20:39 Ice Warning 14.0F 31F 32F 5 0% - 100% 0 mhos 10 None None - -
02/26/2015 20:29 Ice Warning 14.2F 31F 32F 5 0% - 100% 0 mhos 10 None None - -
02/26/2015 20:21 Ice Warning 14.4F 31F 32F 5 0% - 100% 0 mhos 11 None None - -
02/26/2015 20:19 Ice Warning 14.5F 31F 32F 5 0% - 100% 0 mhos 13 None None - -
02/26/2015 20:11 Ice Warning 14.9F 31F 32F 5 0% - 100% 0 mhos 13 None None - -
02/26/2015 20:09 Ice Warning 15.1F 31F 32F 5 0% - 100% 0 mhos 13 None None - -
02/26/2015 19:59 Ice Warning 15.4F 31F 32F 5 0% - 100% 0 mhos 13 None None - -
02/26/2015 19:52 Ice Warning 16.0F 31F 32F 5 0% - 100% 0 mhos 13 None None - -
02/26/2015 19:48 Ice Warning 16.2F 31F 32F 5 0% - 100% 0 mhos 13 None None - -
02/26/2015 19:41 Ice Warning 16.3F 31F 32F 5 0% - 100% 0 mhos 13 None None - -
02/26/2015 19:38 Ice Warning 16.5F 31F 32F 5 0% - 100% 0 mhos 13 None None - -
02/26/2015 19:28 Ice Warning 17.1F 31F 32F 5 0% - 100% 0 mhos 12 None None - -
Date/Time
(MST)
Sf
Temp Chem Water Layer Surface Precipitation
Sf Sub Frz Factor Pct Depth IcePct Cond Salin Type Intens Accum Rate
02/26/2015 19:21 Ice Warning 17.2F 31F 32F 5 0% - 100% 0 mhos 12 None None - -
02/26/2015 19:18 Ice Warning 17.4F 31F 32F 5 0% - 100% 0 mhos 10 None None - -
02/26/2015 19:11 Ice Warning 17.6F 31F 32F 5 0% - 100% 0 mhos 10 None None - -
02/26/2015 19:08 Ice Warning 17.6F 31F 32F 5 0% - 100% 0 mhos 10 None None - -
02/26/2015 18:58 Ice Warning 17.8F 31F 32F 5 0% - 100% 0 mhos 9 None None - -
02/26/2015 18:51 Ice Warning 18.0F 31F 32F 5 0% - 100% 0 mhos 9 None None - -
02/26/2015 18:48 Ice Warning 18.5F 31F 32F 5 0% - 100% 0 mhos 8 None None - -
02/26/2015 18:40 Ice Warning 18.5F 31F 32F 5 0% - 100% 0 mhos 8 None None - -
02/26/2015 18:38 Ice Warning 18.5F 31F 32F 5 0% - 100% 0 mhos 8 None None - -
02/26/2015 18:28 Ice Warning 19.0F 31F 32F 10 0% - 100% 0 mhos 7 Yes - - -
02/26/2015 18:21 Ice Warning 19.2F 31F 32F 5 0% - 100% 0 mhos 7 None None - -
02/26/2015 18:18 Ice Warning 19.4F 31F 32F 5 0% - 100% 0 mhos 7 None None - -
02/26/2015 18:09 Ice Warning 19.8F 31F 32F 5 0% - 100% 0 mhos 7 None None - -
02/26/2015 18:08 Ice Warning 19.8F 31F 32F 5 0% - 100% 0 mhos 7 None None - -
02/26/2015 17:58 Ice Warning 20.5F 31F 32F 5 0% - 100% 0 mhos 7 None None - -
Date/Time
(MST)
Sf
Temp Chem Water Layer Surface Precipitation
Sf Sub Frz Factor Pct Depth IcePct Cond Salin Type Intens Accum Rate
02/26/2015 17:51 Ice Warning 20.8F 31F 32F 5 0% - 100% 0 mhos 7 None None - -
02/26/2015 17:48 Ice Warning 21.2F 31F 32F 5 0% - 100% 0 mhos 7 None None - -
02/26/2015 17:40 Ice Warning 21.4F 31F 32F 5 0% - 100% 0 mhos 7 None None - -
02/26/2015 17:38 Ice Warning 21.7F 31F 32F 5 0% - 100% 0 mhos 8 None None - -
02/26/2015 17:28 Ice Warning 22.5F 31F 32F 5 0% - 100% 0 mhos 8 None None - -
02/26/2015 17:21 Ice Warning 23.2F 31F 32F 5 0% - 100% 0 mhos 9 None None - -
02/26/2015 17:18 Ice Warning 23.5F 31F 32F 5 0% - 100% 0 mhos 9 None None - -
02/26/2015 17:10 Ice Warning 23.9F 31F 32F 5 0% - 100% 0 mhos 9 None None - -
02/26/2015 17:08 Ice Warning 23.9F 31F 32F 5 0% - 100% 0 mhos 9 None None - -
02/26/2015 16:58 Ice Warning 25.5F 31F 32F 5 0% - 100% 0 mhos 12 None None - -
02/26/2015 16:51 Ice Warning 26.1F 31F 32F 5 0% - 100% 0 mhos 13 None None - -
02/26/2015 16:48 Ice Warning 26.1F 31F 32F 5 0% - 100% 0 mhos 13 None None - -
02/26/2015 16:40 Ice Warning 26.8F 31F 32F 5 0% - 100% 0 mhos 14 None None - -
02/26/2015 16:37 Ice Warning 27.3F 31F 32F 5 0% - 100% 0 mhos 14 None None - -
02/26/2015 16:27 Ice Warning 28.0F 31F 32F 5 0% - 100% 0 mhos 16 None None - -
Date/Time
(MST)
Sf
Temp Chem Water Layer Surface Precipitation
Sf Sub Frz Factor Pct Depth IcePct Cond Salin Type Intens Accum Rate
02/26/2015 16:21 Ice Warning 29.1F 31F 32F 5 0% - 99% 0 mhos 18 None None - -
02/26/2015 16:17 Ice Warning 29.3F 31F 32F 5 0% - 99% 0 mhos 19 None None - -
02/26/2015 16:10 Ice Warning 29.5F 31F 32F 5 0% - 99% 0 mhos 21 None None - -
02/26/2015 16:07 Ice Warning 28.9F 31F 32F 5 0% - 99% 0 mhos 22 None None - -
02/26/2015 15:57 Ice Warning 28.6F 31F 32F 5 0% - 99% 0 mhos 24 None None - -
02/26/2015 15:51 Ice Warning 29.5F 31F 32F 5 0% - 99% 0 mhos 27 None None - -
02/26/2015 15:47 Ice Warning 30.0F 31F 32F 5 0% - 98% 0 mhos 29 None None - -
02/26/2015 15:40 Ice Warning 31.6F 31F 32F 5 0% - 91% 0 mhos 34 None None - -
02/26/2015 15:37 Ice Warning 31.8F 31F 32F 5 0% - 86% 0 mhos 35 None None - -
02/26/2015 15:27 Wet 34.7F 31F 32F 5 0% 0.00 in 0% 0 mhos 47 None None - -
02/26/2015 15:21 Wet 32.7F 31F 32F 5 0% 0.00 in 0% 0 mhos 51 None None - -
02/26/2015 15:17 Wet 32.5F 31F 32F 5 0% 0.00 in 0% 1 mhos 56 None None - -
02/26/2015 15:10 Wet 33.4F 31F 32F 5 0% 0.00 in 0% 1 mhos 65 None None - -
02/26/2015 15:07 Wet 33.4F 31F 32F 5 0% 0.00 in 0% 1 mhos 67 None None - -
02/26/2015 14:57 Wet 32.4F 31F 32F 5 0% 0.00 in 0% 1 mhos 85 None None - -
Date/Time
(MST)
Sf
Temp Chem Water Layer Surface Precipitation
Sf Sub Frz Factor Pct Depth IcePct Cond Salin Type Intens Accum Rate
02/26/2015 14:51 Wet 34.0F 31F 32F 5 0% 0.00 in 0% 1 mhos 99 None None - -
02/26/2015 14:47 Wet 34.3F 31F 32F 5 0% 0.00 in 0% 1 mhos 107 None None - -
02/26/2015 14:40 Wet 35.4F 31F 32F 5 0% 0.00 in 0% 1 mhos 126 None None - -
02/26/2015 14:37 Wet 35.8F 31F 32F 5 1% 0.00 in 0% 1 mhos 131 None None - -
02/26/2015 14:27 Wet 35.4F 31F 32F 5 1% 0.00 in 0% 2 mhos 164 None None - -
02/26/2015 14:21 Wet 36.1F 31F 32F 5 1% 0.00 in 0% 2 mhos 191 None None - -
02/26/2015 14:17 Wet 35.8F 31F 32F 5 1% 0.00 in 0% 2 mhos 220 None None - -
02/26/2015 14:10 Wet 35.1F 31F 32F 5 1% 0.00 in 0% 2 mhos 251 None None - -
02/26/2015 14:07 Wet 35.1F 31F 32F 5 1% 0.00 in 0% 3 mhos 257 None None - -
02/26/2015 13:57 Wet 35.1F 31F 32F 5 1% 0.00 in 0% 3 mhos 317 None None - -
02/26/2015 13:51 Wet 34.0F 31F 32F 5 1% 0.00 in 0% 3 mhos 337 None None - -
02/26/2015 13:47 Wet 33.6F 31F 32F 5 1% 0.00 in 0% 3 mhos 350 None None - -
02/26/2015 13:39 Wet 34.7F 31F 32F 25 1% 0.00 in 0% 4 mhos 361 None None - -
02/26/2015 13:37 Wet 34.5F 31F 32F 5 2% 0.00 in 0% 4 mhos 399 None None - -
02/26/2015 13:26 Wet 34.2F 31F 31F 5 2% 0.00 in 0% 4 mhos 437 None None - -
Date/Time
(MST)
Sf
Temp Chem Water Layer Surface Precipitation
Sf Sub Frz Factor Pct Depth IcePct Cond Salin Type Intens Accum Rate
02/26/2015 13:21 Wet 34.3F 31F 31F 5 2% 0.00 in 0% 4 mhos 452 None None - -
02/26/2015 13:16 Wet 35.2F 31F 31F 5 2% 0.00 in 0% 5 mhos 465 None None - -
02/26/2015 13:09 Wet 35.2F 31F 31F 5 2% 0.00 in 0% 5 mhos 486 None None - -
02/26/2015 13:06 Wet 34.5F 31F 31F 5 2% 0.00 in 0% 5 mhos 495 None None - -
02/26/2015 12:56 Wet 33.3F 31F 31F 5 2% 0.00 in 0% 5 mhos 517 None None - -
02/26/2015 12:51 Wet 33.3F 31F 31F 5 2% 0.00 in 0% 5 mhos 538 None None - -
02/26/2015 12:46 Wet 33.3F 31F 31F 55 2% 0.00 in 0% 5 mhos 558 None None - -
02/26/2015 12:39 Wet 33.1F 31F 31F 5 2% 0.00 in 0% 6 mhos 584 None None - -
02/26/2015 12:36 Wet 33.3F 31F 31F 5 2% 0.00 in 0% 6 mhos 596 None None - -
02/26/2015 12:26 Wet 32.9F 31F 31F 95 2% 0.00 in 0% 6 mhos 615 None None - -
02/26/2015 12:21 Wet 32.5F 31F 31F 95 2% 0.00 in 0% 6 mhos 627 None None - -
02/26/2015 12:16 Wet 32.4F 31F 31F 95 2% 0.00 in 0% 6 mhos 633 None None - -
02/26/2015 12:10 Wet 32.0F 31F 31F 95 2% 0.00 in 0% 6 mhos 640 None None - -
02/26/2015 12:06 Chemically Wet 31.5F 31F 31F 95 2% 0.00 in 0% 6 mhos 643 None None - -
02/26/2015 11:56 Chemically Wet 31.3F 31F 31F 95 2% - 8% 6 mhos 642 None None - -
Date/Time
(MST)
Sf
Temp Chem Water Layer Surface Precipitation
Sf Sub Frz Factor Pct Depth IcePct Cond Salin Type Intens Accum Rate
02/26/2015 11:51 Chemically Wet 30.9F 31F 31F 95 2% - 40% 6 mhos 637 None None - -
02/26/2015 11:46 Chemically Wet 30.9F 31F 31F 95 2% - 40% 6 mhos 639 None None - -
02/26/2015 11:39 Chemically Wet 30.2F 31F 31F 95 2% - 64% 6 mhos 635 None None - -
02/26/2015 11:36 Chemically Wet 29.8F 31F 31F 95 2% - 70% 6 mhos 634 None None - -
02/26/2015 11:26 Chemically Wet 29.1F 31F 31F 95 2% - 80% 5 mhos 582 None None - -
02/26/2015 11:21 Ice Warning 28.6F 31F 31F 95 2% - 85% 4 mhos 494 None None - -
02/26/2015 11:16 Ice Warning 28.4F 31F 32F 95 2% - 89% 4 mhos 406 None None - -
02/26/2015 11:09 Ice Warning 27.7F 31F 32F 95 1% - 92% 3 mhos 368 None None - -
02/26/2015 11:06 Ice Warning 27.1F 31F 32F 95 1% - 92% 3 mhos 362 None None - -
02/26/2015 10:56 Ice Warning 26.6F 31F 32F 95 1% - 94% 3 mhos 349 None None - -
02/26/2015 10:51 Ice Warning 26.1F 31F 32F 95 1% - 94% 3 mhos 346 Yes - - -
02/26/2015 10:46 Ice Warning 25.7F 31F 32F 95 1% - 95% 3 mhos 342 None None - -
02/26/2015 10:38 Ice Warning 24.8F 31F 32F 95 1% - 95% 3 mhos 339 None None - -
02/26/2015 10:36 Ice Warning 24.8F 31F 32F 95 1% - 96% 3 mhos 337 None None - -
02/26/2015 10:26 Ice Warning 23.9F 31F 32F 95 1% - 96% 3 mhos 336 None None - -
Date/Time
(MST)
Sf
Temp Chem Water Layer Surface Precipitation
Sf Sub Frz Factor Pct Depth IcePct Cond Salin Type Intens Accum Rate
02/26/2015 10:21 Ice Warning 23.4F 31F 32F 95 1% - 96% 3 mhos 336 Yes - - -
02/26/2015 10:15 Ice Warning 22.8F 31F 32F 95 1% - 96% 3 mhos 334 Yes - - -
02/26/2015 10:09 Ice Warning 22.5F 31F 32F 95 1% - 97% 3 mhos 334 Yes - - -
02/26/2015 10:05 Ice Warning 22.3F 31F 32F 95 1% - 97% 3 mhos 332 None None - -
02/26/2015 09:55 Ice Warning 20.8F 31F 32F 95 1% - 97% 2 mhos 311 Yes - - -
02/26/2015 09:51 Ice Warning 20.7F 31F 32F 95 1% - 97% 2 mhos 307 None None - -
02/26/2015 09:45 Ice Warning 20.3F 31F 32F 95 1% - 97% 2 mhos 305 None None - -
02/26/2015 09:39 Ice Warning 19.8F 31F 32F 95 1% - 98% 2 mhos 303 None None - -
02/26/2015 09:35 Ice Warning 19.4F 31F 32F 95 1% - 98% 2 mhos 301 None None - -
02/26/2015 09:25 Ice Warning 18.9F 31F 32F 95 1% - 98% 2 mhos 296 None None - -
02/26/2015 09:21 Ice Warning 18.5F 31F 32F 95 1% - 98% 2 mhos 288 None None - -
02/26/2015 09:15 Ice Warning 18.1F 31F 32F 95 1% - 98% 2 mhos 289 None None - -
02/26/2015 09:09 Ice Warning 17.6F 31F 32F 95 1% - 98% 2 mhos 284 Yes - - -
02/26/2015 09:05 Ice Warning 17.8F 31F 32F 95 1% - 98% 2 mhos 281 None None - -
02/26/2015 08:55 Ice Warning 17.2F 31F 32F 95 1% - 98% 2 mhos 280 None None - -
Date/Time
(MST)
Sf
Temp Chem Water Layer Surface Precipitation
Sf Sub Frz Factor Pct Depth IcePct Cond Salin Type Intens Accum Rate
02/26/2015 08:51 Ice Warning 16.9F 31F 32F 95 1% - 98% 2 mhos 278 None None - -
02/26/2015 08:45 Ice Warning 16.5F 31F 32F 95 1% - 98% 2 mhos 274 None None - -
02/26/2015 08:40 Ice Warning 16.5F 31F 32F 95 1% - 98% 2 mhos 271 None None - -
02/26/2015 08:35 Ice Warning 16.5F 31F 32F 95 1% - 98% 2 mhos 271 None None - -
02/26/2015 08:25 Ice Warning 16.2F 31F 32F 95 1% - 98% 2 mhos 270 None None - -
02/26/2015 08:21 Ice Warning 16.2F 31F 32F 95 1% - 98% 2 mhos 267 None None - -
02/26/2015 08:15 Ice Warning 15.8F 31F 32F 95 1% - 98% 2 mhos 262 None None - -
02/26/2015 08:09 Ice Warning 15.4F 31F 32F 95 1% - 98% 2 mhos 258 None None - -
02/26/2015 08:05 Ice Warning 15.4F 31F 32F 90 1% - 99% 2 mhos 259 None None - -
02/26/2015 07:55 Ice Warning 15.3F 31F 32F 90 1% - 99% 2 mhos 254 None None - -
02/26/2015 07:51 Ice Warning 15.3F 31F 32F 90 1% - 99% 2 mhos 252 None None - -
02/26/2015 07:45 Ice Warning 15.1F 31F 32F 90 1% - 99% 2 mhos 250 None None - -
02/26/2015 07:39 Ice Warning 15.1F 31F 32F 90 1% - 99% 2 mhos 248 None None - -
02/26/2015 07:35 Ice Warning 14.9F 31F 32F 95 1% - 99% 2 mhos 246 None None - -
02/26/2015 07:25 Ice Warning 14.9F 31F 32F 95 1% - 99% 2 mhos 246 None None - -
Date/Time
(MST)
Sf
Temp Chem Water Layer Surface Precipitation
Sf Sub Frz Factor Pct Depth IcePct Cond Salin Type Intens Accum Rate
02/26/2015 07:21 Ice Warning 14.9F 31F 32F 95 1% - 99% 2 mhos 246 None None - -
02/26/2015 07:15 Ice Warning 14.9F 31F 32F 95 1% - 99% 2 mhos 243 None None - -
02/26/2015 07:09 Ice Warning 15.1F 31F 32F 95 1% - 99% 2 mhos 245 None None - -
02/26/2015 07:05 Ice Warning 15.3F 31F 32F 95 1% - 99% 2 mhos 242 None None - -
02/26/2015 06:54 Ice Warning 15.4F 31F 32F 95 1% - 99% 2 mhos 246 None None - -
02/26/2015 06:51 Ice Warning 15.4F 31F 32F 95 1% - 99% 2 mhos 246 None None - -
02/26/2015 06:44 Ice Warning 15.6F 31F 32F 95 1% - 99% 2 mhos 248 None None - -
02/26/2015 06:41 Ice Warning 15.8F 31F 32F 95 1% - 99% 2 mhos 247 None None - -
02/26/2015 06:34 Ice Warning 16.0F 31F 32F 95 1% - 98% 2 mhos 251 None None - -
02/26/2015 06:24 Ice Warning 16.5F 31F 32F 95 1% - 98% 2 mhos 257 None None - -
02/26/2015 06:21 Ice Warning 16.5F 31F 32F 95 1% - 98% 2 mhos 257 None None - -
02/26/2015 06:14 Ice Warning 16.9F 31F 32F 95 1% - 98% 2 mhos 258 None None - -
02/26/2015 06:11 Ice Warning 17.1F 31F 32F 95 1% - 98% 2 mhos 260 None None - -
02/26/2015 06:04 Ice Warning 17.2F 31F 32F 95 1% - 98% 2 mhos 262 None None - -
02/26/2015 05:54 Ice Warning 17.4F 31F 32F 95 1% - 98% 2 mhos 268 None None - -
Date/Time
(MST)
Sf
Temp Chem Water Layer Surface Precipitation
Sf Sub Frz Factor Pct Depth IcePct Cond Salin Type Intens Accum Rate
02/26/2015 05:51 Ice Warning 17.6F 31F 32F 95 1% - 98% 2 mhos 273 None None - -
02/26/2015 05:44 Ice Warning 18.3F 31F 32F 95 1% - 98% 2 mhos 293 None None - -
02/26/2015 05:41 Ice Warning 18.7F 31F 32F 95 1% - 98% 2 mhos 309 None None - -
02/26/2015 05:34 Ice Warning 19.2F 31F 32F 95 1% - 97% 3 mhos 366 Yes - - -
02/26/2015 05:24 Ice Warning 19.0F 31F 32F 95 1% - 97% 3 mhos 365 None None - -
02/26/2015 05:21 Ice Warning 19.2F 31F 32F 95 1% - 97% 3 mhos 366 None None - -
02/26/2015 05:14 Ice Warning 19.4F 31F 32F 95 1% - 97% 3 mhos 369 None None - -
02/26/2015 05:11 Ice Warning 19.6F 31F 32F 95 1% - 97% 3 mhos 371 Yes - - -
02/26/2015 05:04 Ice Warning 19.6F 31F 32F 95 1% - 97% 3 mhos 372 None None - -
02/26/2015 04:54 Ice Warning 19.8F 31F 32F 95 1% - 97% 3 mhos 374 None None - -
02/26/2015 04:51 Ice Warning 20.1F 31F 32F 95 1% - 97% 3 mhos 372 None None - -
02/26/2015 04:44 Ice Warning 20.1F 31F 32F 95 1% - 97% 3 mhos 373 Yes - - -
02/26/2015 04:41 Ice Warning 20.1F 31F 32F 95 1% - 97% 3 mhos 373 None None - -
02/26/2015 04:34 Ice Warning 20.3F 31F 32F 95 1% - 97% 3 mhos 372 None None - -
02/26/2015 04:24 Ice Warning 20.5F 31F 32F 95 1% - 97% 3 mhos 372 None None - -
Date/Time
(MST)
Sf
Temp Chem Water Layer Surface Precipitation
Sf Sub Frz Factor Pct Depth IcePct Cond Salin Type Intens Accum Rate
02/26/2015 04:21 Ice Warning 20.5F 31F 32F 95 1% - 97% 3 mhos 372 None None - -
02/26/2015 04:14 Ice Warning 20.7F 31F 32F 95 1% - 97% 3 mhos 371 Yes - - -
02/26/2015 04:11 Ice Warning 20.7F 31F 32F 95 1% - 97% 3 mhos 372 None None - -
02/26/2015 04:04 Ice Warning 20.7F 31F 32F 95 1% - 97% 3 mhos 372 Yes - - -
02/26/2015 03:54 Ice Warning 20.7F 31F 32F 95 1% - 97% 3 mhos 374 Yes - - -
02/26/2015 03:51 Ice Warning 20.7F 31F 32F 95 1% - 97% 3 mhos 374 Yes - - -
02/26/2015 03:43 Ice Warning 20.8F 31F 32F 95 1% - 97% 3 mhos 370 Yes - - -
02/26/2015 03:41 Ice Warning 20.7F 31F 32F 95 1% - 97% 3 mhos 371 None None - -
02/26/2015 03:33 Ice Warning 20.8F 31F 32F 95 1% - 97% 3 mhos 369 Yes - - -
02/26/2015 03:23 Ice Warning 20.8F 31F 32F 95 1% - 97% 3 mhos 369 None None - -
02/26/2015 03:21 Ice Warning 20.8F 31F 32F 95 1% - 97% 3 mhos 369 None None - -
02/26/2015 03:13 Ice Warning 21.0F 31F 32F 95 1% - 97% 3 mhos 368 None None - -
02/26/2015 03:11 Ice Warning 21.0F 31F 32F 95 1% - 97% 3 mhos 368 Yes - - -
02/26/2015 03:03 Ice Warning 21.0F 31F 32F 95 1% - 97% 3 mhos 368 Yes - - -
02/26/2015 02:53 Ice Warning 21.2F 31F 32F 95 1% - 97% 3 mhos 366 None None - -
Date/Time
(MST)
Sf
Temp Chem Water Layer Surface Precipitation
Sf Sub Frz Factor Pct Depth IcePct Cond Salin Type Intens Accum Rate
02/26/2015 02:51 Ice Warning 21.2F 31F 32F 95 1% - 97% 3 mhos 366 Yes - - -
02/26/2015 02:43 Ice Warning 21.0F 31F 32F 95 1% - 97% 3 mhos 366 Yes - - -
02/26/2015 02:41 Ice Warning 21.0F 31F 32F 95 1% - 97% 3 mhos 366 Yes - - -
02/26/2015 02:33 Ice Warning 21.0F 31F 32F 95 1% - 97% 3 mhos 365 Yes - - -
02/26/2015 02:23 Ice Warning 20.8F 31F 32F 95 1% - 97% 3 mhos 362 None None - -
02/26/2015 02:23 Ice Warning 20.8F 31F 32F 95 1% - 97% 3 mhos 362 None None - -
02/26/2015 02:13 Ice Warning 21.0F 31F 32F 95 1% - 97% 3 mhos 358 Yes - - -
02/26/2015 02:11 Ice Warning 20.7F 31F 32F 95 1% - 97% 3 mhos 359 Yes - - -
02/26/2015 02:03 Ice Warning 20.7F 31F 32F 95 1% - 97% 3 mhos 357 Yes - - -
02/26/2015 01:53 Ice Warning 20.7F 31F 32F 95 1% - 97% 3 mhos 354 Yes - - -
02/26/2015 01:52 Ice Warning 20.7F 31F 32F 95 1% - 97% 3 mhos 353 Yes - - -
02/26/2015 01:43 Ice Warning 20.5F 31F 32F 95 1% - 97% 3 mhos 351 Yes - - -
02/26/2015 01:41 Ice Warning 20.5F 31F 32F 95 1% - 97% 3 mhos 350 Yes - - -
02/26/2015 01:33 Ice Warning 20.5F 31F 32F 95 1% - 97% 3 mhos 348 None None - -
02/26/2015 01:23 Ice Warning 20.3F 31F 32F 95 1% - 97% 3 mhos 347 None None - -
Date/Time
(MST)
Sf
Temp Chem Water Layer Surface Precipitation
Sf Sub Frz Factor Pct Depth IcePct Cond Salin Type Intens Accum Rate
02/26/2015 01:21 Ice Warning 20.3F 31F 32F 95 1% - 97% 3 mhos 347 None None - -
02/26/2015 01:13 Ice Warning 20.3F 31F 32F 95 1% - 97% 3 mhos 345 Yes - - -
02/26/2015 01:11 Ice Warning 20.3F 31F 32F 95 1% - 97% 3 mhos 345 Yes - - -
02/26/2015 01:03 Ice Warning 20.5F 31F 32F 95 1% - 97% 3 mhos 344 None None - -
02/26/2015 00:53 Ice Warning 20.3F 31F 32F 95 1% - 97% 3 mhos 344 None None - -
02/26/2015 00:51 Ice Warning 20.3F 31F 32F 95 1% - 97% 3 mhos 344 Yes - - -
02/26/2015 00:43 Ice Warning 20.5F 31F 32F 95 1% - 97% 3 mhos 342 None None - -
02/26/2015 00:41 Ice Warning 20.5F 31F 32F 95 1% - 97% 3 mhos 341 None None - -
02/26/2015 00:33 Ice Warning 20.5F 31F 32F 95 1% - 97% 3 mhos 341 None None - -
02/26/2015 00:22 Ice Warning 20.5F 31F 32F 95 1% - 97% 3 mhos 341 None None - -
02/26/2015 00:12 Ice Warning 20.5F 31F 32F 95 1% - 97% 3 mhos 339 None None - -
02/26/2015 00:11 Ice Warning 20.5F 31F 32F 95 1% - 97% 3 mhos 339 None None - -
02/26/2015 00:02 Ice Warning 20.7F 31F 32F 95 1% - 97% 3 mhos 338 Yes - - -
02/25/2015 23:52 Ice Warning 20.7F 31F 32F 95 1% - 97% 2 mhos 315 Yes - - -
02/25/2015 23:42 Ice Warning 20.5F 31F 32F 95 1% - 97% 2 mhos 316 None None - -
Date/Time
(MST)
Sf
Temp Chem Water Layer Surface Precipitation
Sf Sub Frz Factor Pct Depth IcePct Cond Salin Type Intens Accum Rate
02/25/2015 23:41 Ice Warning 20.5F 31F 32F 95 1% - 97% 2 mhos 316 None None - -
02/25/2015 23:32 Ice Warning 20.5F 31F 32F 95 1% - 97% 2 mhos 312 None None - -
02/25/2015 23:24 Ice Warning 20.5F 31F 32F 95 1% - 97% 2 mhos 312 None None - -
02/25/2015 23:22 Ice Warning 20.5F 31F 32F 95 1% - 97% 2 mhos 312 None None - -
02/25/2015 23:12 Ice Warning 20.5F 31F 32F 95 1% - 97% 2 mhos 312 None None - -
02/25/2015 23:11 Ice Warning 20.5F 31F 32F 95 1% - 97% 2 mhos 311 None None - -
02/25/2015 23:02 Ice Warning 20.5F 31F 32F 95 1% - 97% 2 mhos 307 Yes - - -
02/25/2015 22:56 Ice Warning 20.5F 31F 32F 95 1% - 97% 2 mhos 307 Yes - - -
02/25/2015 22:52 Ice Warning 20.3F 31F 32F 95 1% - 97% 2 mhos 308 Yes - - -
02/25/2015 22:42 Ice Warning 20.1F 31F 32F 95 1% - 98% 2 mhos 301 Yes - - -
02/25/2015 22:39 Ice Warning 20.1F 31F 32F 95 1% - 98% 2 mhos 301 Yes - - -
02/25/2015 22:32 Ice Warning 20.1F 31F 32F 95 1% - 98% 2 mhos 297 None None - -
02/25/2015 22:30 Ice Warning 19.9F 31F 32F 95 1% - 98% 2 mhos 298 Yes - - -
02/25/2015 22:22 Ice Warning 19.8F 31F 32F 95 1% - 98% 2 mhos 299 Yes - - -
02/25/2015 22:12 Ice Warning 19.8F 31F 32F 95 1% - 98% 2 mhos 295 Yes - - -
Date/Time
(MST)
Sf
Temp Chem Water Layer Surface Precipitation
Sf Sub Frz Factor Pct Depth IcePct Cond Salin Type Intens Accum Rate
02/25/2015 22:11 Ice Warning 19.8F 31F 32F 95 1% - 98% 2 mhos 295 None None - -
02/25/2015 22:02 Ice Warning 19.8F 31F 32F 95 1% - 98% 2 mhos 295 Yes - - -
02/25/2015 21:52 Ice Warning 19.6F 31F 32F 95 1% - 98% 2 mhos 293 None None - -
02/25/2015 21:51 Ice Warning 19.6F 31F 32F 95 1% - 98% 2 mhos 289 Yes - - -
02/25/2015 21:42 Ice Warning 19.6F 31F 32F 95 1% - 98% 2 mhos 290 Yes - - -
02/25/2015 21:41 Ice Warning 19.6F 31F 32F 95 1% - 98% 2 mhos 293 Yes - - -
02/25/2015 21:32 Ice Warning 19.6F 31F 32F 95 1% - 98% 2 mhos 297 None None - -
02/25/2015 21:22 Ice Warning 19.6F 31F 32F 95 1% - 98% 2 mhos 296 Yes - - -
02/25/2015 21:21 Ice Warning 19.6F 31F 32F 95 1% - 98% 2 mhos 296 Yes - - -
02/25/2015 21:11 Ice Warning 19.6F 31F 32F 95 1% - 98% 2 mhos 293 None None - -
02/25/2015 21:11 Ice Warning 19.6F 31F 32F 95 1% - 98% 2 mhos 293 Yes - - -
Change End Date:
Copyright © 1998-2005 Surface Systems, Inc.
All Rights Reserved
Send comments about the data to:
SCAN Web ® is a registered trademark of Surface Systems, Inc.
SCAN Web Version 5.6